Weather History for Hilo, HI

Change the Weather History Date:

Sunday, February 24, 2013

  Actual Average Record
Temperature  
Mean Temperature 72 °F 71 °F  
Max Temperature 78 °F 79 °F 89 °F (1992)
Min Temperature 66 °F 64 °F 57 °F (1965)
Degree Days  
Heating Degree Days 0 0  
Month to date heating degree days 0 0  
Since 1 July heating degree days 0 0  
Cooling Degree Days 7 6  
Month to date cooling degree days 147 144  
Year to date cooling degree days 352 342  
Growing Degree Days 21 (Base 50)    
Moisture  
Dew Point 63 °F    
Average Humidity 74    
Maximum Humidity 87    
Minimum Humidity 60    
Precipitation  
Precipitation 0.31 in 0.36 in 7.09 in (2002)
Month to date precipitation 22.02 8.05  
Year to date precipitation 30.40 17.31  
Snow  
Snow 0.00 in - - ()
Month to date snowfall 0.0  
Since 1 July snowfall 0.0  
Snow Depth 0.00 in    
Sea Level Pressure  
Sea Level Pressure 30.09 in    
Wind  
Wind Speed 10 mph (NE)    
Max Wind Speed 18 mph    
Max Gust Speed 24 mph    
Visibility 9 miles    
Events Rain    
T = Trace of Precipitation, MM = Missing Value Source: NWS Daily Summary

Daily Weather History Graph

Daily Weather History Graph

Search for Another Location

Airport:

Trip Planner

Search our weather history database for the weather conditions in past years. The results will help you decide how hot, cold, wet, or windy it might be!

Date:

Astronomy

Feb. 24, 2013 Rise Set
Actual Time 6:43 AM HST 6:23 PM HST
Civil Twilight 6:20 AM HST 6:45 PM HST
Nautical Twilight 5:55 AM HST 7:11 PM HST
Astronomical Twilight 5:29 AM HST 7:37 PM HST
Moon 5:44 PM HST (2/24) 5:44 AM HST (2/24)
Length of Visible Light 12h 25m
Length of Day
11h 40m
Waxing Gibbous, 99% of the Moon is Illuminated
Feb 24
Waxing Gibbous
Feb 25
Full
Mar 4
Last Quarter
Mar 11
New
Mar 19
First Quarter

Hourly Weather History & Observations

Time (HST) Temp. Dew Point Humidity Pressure Visibility Wind Dir Wind Speed Gust Speed Precip Events Conditions
12:53 AM 70.0 °F 63.0 °F 78% 30.11 in 10.0 mi NE 9.2 mph - N/A   Mostly Cloudy
1:53 AM 66.9 °F 63.0 °F 87% 30.10 in 10.0 mi East 6.9 mph - 0.00 in   Mostly Cloudy
2:53 AM 69.1 °F 62.1 °F 78% 30.08 in 10.0 mi ENE 4.6 mph - N/A   Overcast
3:53 AM 66.0 °F 61.0 °F 84% 30.07 in 4.0 mi NE 10.4 mph 24.2 mph 0.00 in Rain Heavy Rain
4:53 AM 66.0 °F 63.0 °F 90% 30.07 in 5.0 mi Calm Calm - 0.19 in Rain Light Rain
5:13 AM 66.9 °F 63.0 °F 87% 30.07 in 7.0 mi North 6.9 mph - 0.05 in Rain Light Rain
5:39 AM 66.9 °F 64.0 °F 90% 30.07 in 10.0 mi NW 10.4 mph - 0.05 in Rain Light Rain
5:53 AM 66.9 °F 63.0 °F 87% 30.06 in 10.0 mi NNW 8.1 mph - 0.05 in   Overcast
6:53 AM 68.0 °F 64.0 °F 87% 30.09 in 10.0 mi North 5.8 mph - 0.00 in   Mostly Cloudy
7:53 AM 68.0 °F 63.0 °F 84% 30.11 in 5.0 mi ENE 10.4 mph - 0.01 in Rain Light Rain
8:53 AM 71.1 °F 64.9 °F 81% 30.12 in 10.0 mi North 9.2 mph - 0.04 in   Mostly Cloudy
9:53 AM 73.0 °F 66.0 °F 79% 30.13 in 10.0 mi NE 8.1 mph - 0.01 in   Mostly Cloudy
10:53 AM 73.9 °F 64.9 °F 73% 30.13 in 10.0 mi NE 15.0 mph - 0.00 in   Mostly Cloudy
11:01 AM 70.0 °F 63.0 °F 78% 30.13 in 5.0 mi NE 8.1 mph 23.0 mph 0.00 in Rain Rain
11:44 AM 75.9 °F 64.0 °F 67% 30.11 in 10.0 mi ENE 15.0 mph - 0.01 in   Mostly Cloudy
11:51 AM 75.2 °F 64.4 °F 69% 30.11 in 10.0 mi NE 13.8 mph - 0.01 in   Mostly Cloudy
11:53 AM 75.9 °F 64.0 °F 67% 30.10 in 10.0 mi ENE 12.7 mph - 0.01 in   Mostly Cloudy
12:53 PM 77.0 °F 63.0 °F 62% 30.08 in 10.0 mi ENE 13.8 mph - N/A   Scattered Clouds
1:53 PM 77.0 °F 63.0 °F 62% 30.06 in 10.0 mi NE 15.0 mph - N/A   Scattered Clouds
2:53 PM 73.9 °F 62.1 °F 66% 30.04 in 10.0 mi ENE 13.8 mph - N/A   Mostly Cloudy
3:53 PM 73.0 °F 62.1 °F 68% 30.04 in 10.0 mi NE 16.1 mph - 0.00 in   Mostly Cloudy
4:53 PM 72.0 °F 62.1 °F 71% 30.04 in 10.0 mi NE 12.7 mph - 0.00 in   Overcast
5:53 PM 71.1 °F 62.1 °F 73% 30.06 in 10.0 mi ENE 11.5 mph - N/A   Mostly Cloudy
6:53 PM 71.1 °F 61.0 °F 70% 30.07 in 10.0 mi NE 11.5 mph - N/A   Mostly Cloudy
7:53 PM 71.1 °F 63.0 °F 75% 30.10 in 10.0 mi NE 12.7 mph - N/A   Mostly Cloudy
8:53 PM 70.0 °F 61.0 °F 73% 30.12 in 10.0 mi ENE 8.1 mph - N/A   Partly Cloudy
9:53 PM 70.0 °F 61.0 °F 73% 30.13 in 10.0 mi NE 8.1 mph - N/A   Partly Cloudy
10:53 PM 71.1 °F 62.1 °F 73% 30.13 in 10.0 mi NE 6.9 mph - N/A   Overcast
11:53 PM 68.0 °F 62.1 °F 81% 30.13 in 10.0 mi NE 5.8 mph - 0.00 in   Overcast